Regional Weather Roundup
Issued by NWS

Home | Current Version | Previous Version | Text Only | Print | Product List | Glossary Off
Versions: 1 2 3 4 5 6 7 8 9 10 11 12 13 14 15 16 17 18 19 20 21 22 23 24 25 26 27 28 29 30 31 32 33 34 35 36 37 38 39 40 41 42 43 44 45 46 47 48 49 50

000
ASUS43 KLOT 241312
RWRIL

ILLINOIS REGIONAL WEATHER ROUNDUP
NATIONAL WEATHER SERVICE CHICAGO/ROMEOVILLE IL
700 AM CST TUE JAN 24 2017

NOTE: "FAIR" INDICATES FEW OR NO CLOUDS BELOW 12,000 FEET WITH NO
SIGNIFICANT WEATHER AND/OR OBSTRUCTIONS TO VISIBILITY.

* THESE STATIONS ARE NOT UNDER NWS QUALITY CONTROL. THEY ALSO MAY NOT
  REPORT WEATHER SUCH AS PRECIPITATION OR FOG.

ILZ001-002-007-009-015-016-024-241400-
NORTHWEST ILLINOIS

CITY           SKY/WX    TMP DP  RH WIND       PRES   REMARKS
MOLINE         CLOUDY    34  30  85 CALM      29.89R
STERLING*      CLOUDY    34  33  96 W5        29.90R WCI  30
SAVANNA*       CLOUDY    33  32  95 CALM      29.90R
$$

ILZ003-004-008-010-011-017-018-241400-
NORTH CENTRAL ILLINOIS

CITY           SKY/WX    TMP DP  RH WIND       PRES   REMARKS
ROCKFORD       CLOUDY    35  30  82 NW6       29.91R WCI  30
FREEPORT*      CLOUDY    33  31  91 CALM      29.91R
ROCHELLE*      CLOUDY    34  32  91 NW5       29.89S WCI  30
DE KALB*       CLOUDY    34  32  91 NW7       29.88R WCI  28
PERU*          CLOUDY    34  32  94 W5        29.90R FOG     WCI  29
$$

ILZ005-006-012>014-019>023-241400-
NORTHEAST ILLINOIS

CITY           SKY/WX    TMP DP  RH WIND       PRES   REMARKS
CHICAGO-OHARE  CLOUDY    35  32  88 NW8       29.86R WCI  29
CHICAGO-MIDWAY CLOUDY    37  31  78 W7        29.87R WCI  32
AURORA         CLOUDY    36  32  85 NW6       29.88R WCI  31
LANSING*       CLOUDY    37  34  90 NW5       29.88R WCI  33
JOLIET*        CLOUDY    38  33  81 NW5       29.89R WCI  35
WAUKEGAN       CLOUDY    36  32  85 NW7       29.85R WCI  30
DUPAGE AIRPORT CLOUDY    36  30  79 NW5       29.87R WCI  32
KANKAKEE*      CLOUDY    37  33  82 NW5       29.90R WCI  34
WHEELING       CLOUDY    36  32  85 W9        29.88R WCI  29
MORRIS*        CLOUDY    36  32  85 CALM      29.88R
ROMEOVILLE*    CLOUDY    36  34  92 NW5       29.88R WCI  32
NORTHERLY ISL    N/A     37  32  82 W9          N/A  WCI  30
$$

LMZ740>746-241400-
SOUTHERN LAKE MICHIGAN

STATION/POSITION SKY/WX   TEMP    WIND        PRES    VSBY  WAVE
                          AIR SEA DIR/SP/G                  HT/PER
                          (F)     (DEG/KT/KT) (MB)    (MI)  (FT/S)
HARRISON CRIB              37     300/  8/ 10   N/A
BURNHAM HARBOR             37     260/  4/ 11   N/A
CALUMET HARBOR             37     300/  5/  8 1010.9R
BURNS HARBOR               35     300/  8/  9 1011.9R
$$

ILZ025>027-034>036-040-047-049-050-058-095>099-241400-
WEST-CENTRAL ILLINOIS

CITY           SKY/WX    TMP DP  RH WIND       PRES   REMARKS
QUINCY         CLOUDY    33  29  85 E6        29.88R WCI  28
GALESBURG*     CLOUDY    32  32  99 CALM      29.89S
MACOMB*        CLOUDY    33  31  92 CALM      29.92S
JACKSONVILLE*  CLOUDY    35  30  79 CALM      29.89F
PITTSFIELD*    CLOUDY    35  31  86 SE5       29.90R WCI  31
$$

ILZ028>032-037-038-041>044-048-051>054-059>061-241400-
CENTRAL ILLINOIS

CITY           SKY/WX    TMP DP  RH WIND       PRES   REMARKS
PONTIAC        CLOUDY    37  37 100 W5        29.90R FOG     WCI  33
BLOOMINGTON    CLOUDY    36  34  92 CALM      29.90R
DECATUR        CLOUDY    37  36  96 NW3       29.90S
PEORIA         CLOUDY    35  33  92 CALM      29.90S
LACON*         CLOUDY    35  33  94 CALM      29.90R FOG
LINCOLN*       CLOUDY    37  35  93 CALM      29.90S
SPRINGFIELD    CLOUDY    38  34  85 CALM      29.90F
TAYLORVILLE    CLOUDY    36  33  89 W3        29.92R
$$

ILZ033-039-045-046-055>057-062-063-241400-
EAST-CENTRAL ILLINOIS

CITY           SKY/WX    TMP DP  RH WIND       PRES   REMARKS
CHAMPAIGN      CLOUDY    38  34  85 NW5       29.89S WCI  34
RANTOUL*       CLOUDY    39  37  94 NW3       29.90R
MATTOON        CLOUDY    38  34  85 NW3       29.89R
PARIS*         CLOUDY    38  37  93 NW5       29.90S WCI  35
$$

ILZ079-100>102-241400-
SOUTHWEST ILLINOIS

CITY           SKY/WX    TMP DP  RH WIND       PRES   REMARKS
ALTON          CLOUDY    36  30  80 CALM      29.91F
BELLEVILLE     CLOUDY    37  31  78 CALM      29.90F
CAHOKIA*       CLOUDY    38  31  76 E3        29.90F
SPARTA*        CLOUDY    37  32  84 CALM      29.93R
$$

ILZ064>066-069>071-074>076-080>082-084>086-088>090-092>094-241400-
SOUTH-CENTRAL ILLINOIS

CITY           SKY/WX    TMP DP  RH WIND       PRES   REMARKS
CARBONDALE     CLOUDY    38  33  82 CALM      29.94R
CAIRO*         CLEAR     30  30 100 CALM      29.92F FOG
EFFINGHAM*     CLOUDY    39  37  91 CALM      29.93R
MARION         CLOUDY    39  36  87 NW5       29.94R
MT. VERNON     CLOUDY    38  33  82 CALM      29.92S
CENTRALIA*     CLOUDY    38  35  88 CALM      29.91F
SALEM*         CLOUDY    40  35  85 CALM      29.92S
METROPOLIS*    CLOUDY    39  33  80 CALM      29.94S
$$

ILZ067-068-072-073-078-083-087-091-241400-
SOUTHEAST ILLINOIS

CITY           SKY/WX    TMP DP  RH WIND       PRES   REMARKS
LAWRENCEVILLE  CLOUDY    41  36  82 NW7       29.93R
FLORA*         CLOUDY    41  37  84 CALM      29.93S
FAIRFIELD*     CLOUDY    40  34  78 CALM      29.91S
HARRISBURG*    CLOUDY    39  34  81 CALM      29.94R
ROBINSON*      CLOUDY    39  35  83 N5        29.92R
CARMI*         CLOUDY    40  34  79 CALM      29.93R
$$

ABBREVIATIONS USED IN REMARKS
   TC - TEMPERATURE IN CELSIUS
  WCI - WIND CHILL INDEX
   HX - HEAT INDEX
  VSB - VISIBILITY
$$





USA.gov is the U.S. government's official web portal to all federal, state and local government web resources and services.